This is the latest recevied weather packets stored in our database for station/object N7AWM. If no packets are shown the sender has not sent any weather packets the latest 1 day(s).
| Time | Temp. | Humidity | Pressure | Rain* | Wind** | Luminosity | Snow |
|---|---|---|---|---|---|---|---|
| 1778016597 | 27.22° C | 29% | 1006.3 hPa | 0 mm | 0.89 m/s, 127° | - | - |
| 1778015757 | 26.67° C | 32% | 1006.4 hPa | 0 mm | 2.24 m/s, 84° | - | - |
| 1778014917 | 26.67° C | 31% | 1006.5 hPa | 0 mm | 1.34 m/s, 160° | - | - |
| 1778014077 | 26.67° C | 31% | 1006.7 hPa | 0 mm | 1.34 m/s, 137° | - | - |
| 1778013237 | 26.11° C | 31% | 1006.8 hPa | 0 mm | 1.79 m/s, 181° | - | - |
| 1778012397 | 26.11° C | 31% | 1006.8 hPa | 0 mm | 1.79 m/s, 157° | - | - |
| 1778011557 | 26.11° C | 34% | 1006.8 hPa | 0 mm | 2.24 m/s, 148° | - | - |
| 1778010717 | 25.56° C | 36% | 1006.9 hPa | 0 mm | 1.34 m/s, 168° | - | - |
| 1778009877 | 25.56° C | 35% | 1007 hPa | 0 mm | 1.79 m/s, 132° | - | - |
| 1778009037 | 25° C | 39% | 1007.1 hPa | 0 mm | 2.24 m/s, 139° | - | - |
| 1778008197 | 24.44° C | 38% | 1007.1 hPa | 0 mm | 2.24 m/s, 157° | - | - |
| 1778007357 | 24.44° C | 42% | 1007.1 hPa | 0 mm | 2.24 m/s, 176° | - | - |
| 1778006517 | 23.89° C | 41% | 1007.2 hPa | 0 mm | 2.68 m/s, 144° | - | - |
| 1778005678 | 23.89° C | 44% | 1007.2 hPa | 0 mm | 1.79 m/s, 143° | - | - |
| 1778004838 | 23.89° C | 48% | 1007.3 hPa | 0 mm | 2.24 m/s, 193° | - | - |
| 1778003998 | 22.78° C | 46% | 1007.3 hPa | 0 mm | 2.24 m/s, 212° | - | - |
| 1778003158 | 22.78° C | 49% | 1007.4 hPa | 0 mm | 1.79 m/s, 160° | - | - |
| 1778002318 | 22.22° C | 49% | 1007.3 hPa | 0 mm | 1.79 m/s, 136° | - | - |
| 1778001478 | 22.22° C | 48% | 1007.3 hPa | 0 mm | 1.79 m/s, 172° | - | - |
| 1778000638 | 21.67° C | 49% | 1007.3 hPa | 0 mm | 1.79 m/s, 144° | - | - |
| 1777999798 | 21.67° C | 48% | 1007.3 hPa | 0 mm | 0.89 m/s, 183° | - | - |
| 1777998958 | 21.11° C | 48% | 1007.2 hPa | 0 mm | 0.45 m/s, 176° | - | - |
| 1777998118 | 20.56° C | 50% | 1007.1 hPa | 0 mm | 0.45 m/s, 165° | - | - |
| 1777997278 | 20° C | 51% | 1007.1 hPa | 0 mm | 0.89 m/s, 169° | - | - |
| 1777996438 | 20.56° C | 51% | 1007 hPa | 0 mm | 0 m/s | - | - |
* Rain latest hour (hover to see other rain measurements)
** Current wind speed in m/s (hover to see current wind gust speed)